Flag for U.S.A. Weather past 2 weeks in Helena, Montana, U.S.A.

Now
39 °F

Clear.


Feels Like: 39 °F
Forecast: 31 / 52 °F
Wind: No wind

Location: Helena Regional Airport

Current Time: Mar 5, 2015 at 9:50:45 PM

Latest Report: Mar 5, 2015 at 8:53 PM


Visibility: 10 mi

Pressure: 30.30 "Hg

Humidity: 38%

Dew point: 15 °F

Location of HelenaLocation

Historic Weather in Helena — Graph

°F

Helena temperature yesterday

Maximum temperature yesterday: 39 °F (at 3:53 PM)
Minimum temperature yesterday: 5 °F (at 4:53 AM)
Average temperature yesterday: 23 °F

Past Weeks' High & Low Weather Summary

 TemperatureHumidityPressure
High50 °F (Feb 19, 11:53 AM)96% (Feb 20, 6:56 PM)30.76 "Hg (Feb 20, 6:56 PM)
Low1 °F (Feb 22, 6:53 AM)16% (Mar 5, 11:53 AM)29.83 "Hg (Mar 2, 1:53 PM)
Average25 °F59%30.31 "Hg
* Reported Feb 18 7:53 PM — Mar 5 7:53 PM, Helena, Weather by CustomWeather, © 2015

Note: Actual official high and low records may vary slightly from our data, if they occured in-between our weather recording intervals... More about our weather records

Advertising

Helena weather history for previous 24 hours

 ConditionsComfort  
Time TempWeatherWind HumidityBarometerVisibility
7:53 PM
Thu, Mar 5
38 °FPassing clouds.6 mph39%30.31 "Hg10 mi
6:53 PM42 °FPassing clouds.5 mph29%30.30 "Hg10 mi
5:53 PM43 °FPartly sunny.No wind27%30.30 "Hg10 mi
4:53 PM45 °FPassing clouds.5 mph26%30.27 "Hg10 mi
3:53 PM47 °FScattered clouds.5 mph21%30.27 "Hg10 mi
2:53 PM47 °FPartly sunny.5 mph20%30.28 "Hg10 mi
1:53 PM46 °FOvercast.10 mph18%30.28 "Hg10 mi
12:53 PM45 °FPartly sunny.15 mph17%30.29 "Hg10 mi
11:53 AM45 °FScattered clouds.15 mph16%30.30 "Hg10 mi
10:53 AM43 °FSunny.14 mph19%30.31 "Hg10 mi
9:53 AM41 °FSunny.13 mph20%30.32 "Hg10 mi
8:53 AM40 °FSunny.6 mph24%30.33 "Hg10 mi
7:53 AM36 °FSunny.3 mph30%30.33 "Hg10 mi
6:53 AM31 °FClear.10 mph35%30.32 "Hg10 mi
5:53 AM32 °FClear.9 mph35%30.31 "Hg10 mi
4:53 AM34 °FClear.9 mph31%30.28 "Hg10 mi
3:53 AM32 °FClear.8 mph35%30.27 "Hg10 mi
2:53 AM33 °FClear.12 mph35%30.28 "Hg10 mi
1:53 AM35 °FClear.9 mph32%30.27 "Hg10 mi
12:53 AM35 °FClear.8 mph35%30.28 "Hg10 mi
11:53 PM
Wed, Mar 4
35 °FClear.13 mph35%30.29 "Hg10 mi
10:53 PM36 °FClear.17 mph34%30.28 "Hg10 mi
9:53 PM35 °FClear.10 mph35%30.29 "Hg10 mi
Weather by CustomWeather, © 2015

See weather overviewHow to use our weather pages